owner,sensor,date,latitude,longitude,vertical_datum,direction_of_sea_water_velocity,sea_water_speed,upward_sea_water_velocity,qcFlag 
ADCP,ioos:station:wmo:42890:1,2016-01-01T00:12:00Z,27.6250,-90.4410,15.2,154.0,12.6,-99999.0,'1111122,1111122,1199999999' 
ADCP,ioos:station:wmo:42890:1,2016-01-01T00:32:00Z,27.6250,-90.4410,15.2,123.0,9.6,-9999.0,'11133222,11111222,99999999' 
ADCP,ioos:station:wmo:42890:1,2016-01-01T00:52:00Z,27.6250,-90.4410,15.2,101.0,8.1,-9999.0,'11133222,11111222,99999999' 
ADCP,ioos:station:wmo:42890:1,2016-01-01T01:12:00Z,27.6250,-90.4410,15.2,71.0,7.2,-99999.0,'1111122,1111122,1199999999' 
ADCP,ioos:station:wmo:42890:1,2016-01-01T01:32:00Z,27.6250,-90.4410,15.2,79.0,7.5,-9999.0,'11133222,11111222,99999999' 
ADCP,ioos:station:wmo:42890:1,2016-01-01T01:52:00Z,27.6250,-90.4410,15.2,41.0,7.7,-9999.0,'11133222,11111222,99999999' 
ADCP,ioos:station:wmo:42890:1,2016-01-01T02:12:00Z,27.6250,-90.4410,15.2,35.0,7.6,-99999.0,'1111122,1111122,1199999999' 
ADCP,ioos:station:wmo:42890:1,2016-01-01T02:32:00Z,27.6250,-90.4410,15.2,66.0,8.0,-9999.0,'11133222,11111222,99999999' 
ADCP,ioos:station:wmo:42890:1,2016-01-01T02:52:00Z,27.6250,-90.4410,15.2,110.0,7.5,-9999.0,'11133222,11111222,99999999' 
ADCP,ioos:station:wmo:42890:1,2016-01-01T03:12:00Z,27.6250,-90.4410,15.2,77.0,8.0,-99999.0,'1111122,1111122,1199999999' 
ADCP,ioos:station:wmo:42890:1,2016-01-01T03:32:00Z,27.6250,-90.4410,15.2,6.0,4.8,-9999.0,'11133222,11111222,99999999' 
ADCP,ioos:station:wmo:42890:1,2016-01-01T03:52:00Z,27.6250,-90.4410,15.2,127.0,4.6,-9999.0,'11133222,11111222,99999999' 
ADCP,ioos:station:wmo:42890:1,2016-01-01T04:12:00Z,27.6250,-90.4410,15.2,227.0,7.9,-99999.0,'1111122,1111122,1199999999' 
ADCP,ioos:station:wmo:42890:1,2016-01-01T04:32:00Z,27.6250,-90.4410,15.2,238.0,3.6,-9999.0,'11133222,11111222,99999999' 
ADCP,ioos:station:wmo:42890:1,2016-01-01T04:52:00Z,27.6250,-90.4410,15.2,256.0,5.0,-9999.0,'11133222,11111222,99999999' 
ADCP,ioos:station:wmo:42890:1,2016-01-01T05:12:00Z,27.6250,-90.4410,15.2,259.0,23.0,-99999.0,'1111122,1111122,1199999999' 
ADCP,ioos:station:wmo:42890:1,2016-01-01T05:32:00Z,27.6250,-90.4410,15.2,251.0,22.0,-9999.0,'11111222,11111222,99999999' 
ADCP,ioos:station:wmo:42890:1,2016-01-01T05:52:00Z,27.6250,-90.4410,15.2,91.0,14.4,-9999.0,'11111222,11111222,99999999' 
ADCP,ioos:station:wmo:42890:1,2016-01-01T06:12:00Z,27.6250,-90.4410,15.2,226.0,8.2,-99999.0,'1111122,1111122,1199999999' 
ADCP,ioos:station:wmo:42890:1,2016-01-01T06:32:00Z,27.6250,-90.4410,15.2,235.0,11.8,-9999.0,'11111222,11111222,99999999' 
ADCP,ioos:station:wmo:42890:1,2016-01-01T06:52:00Z,27.6250,-90.4410,15.2,198.0,9.6,-9999.0,'11133222,11111222,99999999' 
ADCP,ioos:station:wmo:42890:1,2016-01-01T07:12:00Z,27.6250,-90.4410,15.2,226.0,11.3,-9999.0,'11111222,11111222,99999999' 
ADCP,ioos:station:wmo:42890:1,2016-01-01T07:32:00Z,27.6250,-90.4410,15.2,224.0,11.4,-9999.0,'11111222,11111222,99999999' 
ADCP,ioos:station:wmo:42890:1,2016-01-01T07:52:00Z,27.6250,-90.4410,15.2,203.0,7.8,-9999.0,'11133222,11111222,99999999' 
ADCP,ioos:station:wmo:42890:1,2016-01-01T08:12:00Z,27.6250,-90.4410,15.2,276.0,12.6,-99999.0,'1111122,1111122,1199999999' 
ADCP,ioos:station:wmo:42890:1,2016-01-01T08:32:00Z,27.6250,-90.4410,15.2,323.0,8.9,-9999.0,'11133222,11111222,99999999' 
ADCP,ioos:station:wmo:42890:1,2016-01-01T08:52:00Z,27.6250,-90.4410,15.2,305.0,9.0,-9999.0,'11133222,11111222,99999999' 
ADCP,ioos:station:wmo:42890:1,2016-01-01T09:12:00Z,27.6250,-90.4410,15.2,251.0,7.3,-99999.0,'1111122,1111122,1199999999' 
ADCP,ioos:station:wmo:42890:1,2016-01-01T09:32:00Z,27.6250,-90.4410,15.2,5.0,5.0,-9999.0,'11133222,11111222,99999999' 
ADCP,ioos:station:wmo:42890:1,2016-01-01T09:52:00Z,27.6250,-90.4410,15.2,35.0,7.2,-9999.0,'11133222,11111222,99999999' 
ADCP,ioos:station:wmo:42890:1,2016-01-01T10:12:00Z,27.6250,-90.4410,15.2,20.0,5.3,-99999.0,'1111122,1111122,1199999999' 
ADCP,ioos:station:wmo:42890:1,2016-01-01T10:32:00Z,27.6250,-90.4410,15.2,45.0,7.4,-9999.0,'11133222,11111222,99999999' 
ADCP,ioos:station:wmo:42890:1,2016-01-01T10:52:00Z,27.6250,-90.4410,15.2,6.0,5.7,-9999.0,'11133222,11111222,99999999' 
ADCP,ioos:station:wmo:42890:1,2016-01-01T11:12:00Z,27.6250,-90.4410,15.2,331.0,6.3,-99999.0,'1111122,1111122,1199999999' 
ADCP,ioos:station:wmo:42890:1,2016-01-01T11:32:00Z,27.6250,-90.4410,15.2,57.0,8.2,-9999.0,'11133222,11111222,99999999' 
ADCP,ioos:station:wmo:42890:1,2016-01-01T11:52:00Z,27.6250,-90.4410,15.2,43.0,8.1,-9999.0,'11133222,11111222,99999999' 
ADCP,ioos:station:wmo:42890:1,2016-01-01T12:12:00Z,27.6250,-90.4410,15.2,59.0,11.7,-99999.0,'1111122,1111122,1199999999' 
ADCP,ioos:station:wmo:42890:1,2016-01-01T12:32:00Z,27.6250,-90.4410,15.2,76.0,12.2,-9999.0,'11111222,11111222,99999999' 
ADCP,ioos:station:wmo:42890:1,2016-01-01T12:52:00Z,27.6250,-90.4410,15.2,61.0,12.7,-9999.0,'11111222,11111222,99999999' 
ADCP,ioos:station:wmo:42890:1,2016-01-01T13:12:00Z,27.6250,-90.4410,15.2,67.0,13.6,-99999.0,'1111122,1111122,1199999999' 
ADCP,ioos:station:wmo:42890:1,2016-01-01T13:32:00Z,27.6250,-90.4410,15.2,52.0,10.1,-9999.0,'11111222,11111222,99999999' 
ADCP,ioos:station:wmo:42890:1,2016-01-01T13:52:00Z,27.6250,-90.4410,15.2,71.0,12.6,-9999.0,'11111222,11111222,99999999' 
ADCP,ioos:station:wmo:42890:1,2016-01-01T14:12:00Z,27.6250,-90.4410,15.2,79.0,12.1,-99999.0,'1111122,1111122,1199999999' 
ADCP,ioos:station:wmo:42890:1,2016-01-01T14:32:00Z,27.6250,-90.4410,15.2,81.0,12.8,-9999.0,'11111222,11111222,99999999' 
ADCP,ioos:station:wmo:42890:1,2016-01-01T14:52:00Z,27.6250,-90.4410,15.2,76.0,11.5,-9999.0,'11111222,11111222,99999999' 
ADCP,ioos:station:wmo:42890:1,2016-01-01T15:12:00Z,27.6250,-90.4410,15.2,94.0,16.3,-99999.0,'1111122,1111122,1199999999' 
ADCP,ioos:station:wmo:42890:1,2016-01-01T15:32:00Z,27.6250,-90.4410,15.2,94.0,15.7,-9999.0,'11111222,11111222,99999999' 
ADCP,ioos:station:wmo:42890:1,2016-01-01T15:52:00Z,27.6250,-90.4410,15.2,102.0,18.2,-9999.0,'11111222,11111222,99999999' 
ADCP,ioos:station:wmo:42890:1,2016-01-01T16:12:00Z,27.6250,-90.4410,15.2,107.0,16.7,-99999.0,'1111122,1111122,1199999999' 
ADCP,ioos:station:wmo:42890:1,2016-01-01T16:32:00Z,27.6250,-90.4410,15.2,126.0,14.8,-9999.0,'11111222,11111222,99999999' 
ADCP,ioos:station:wmo:42890:1,2016-01-01T16:52:00Z,27.6250,-90.4410,15.2,120.0,12.3,-9999.0,'11111222,11111222,99999999' 
ADCP,ioos:station:wmo:42890:1,2016-01-01T17:12:00Z,27.6250,-90.4410,15.2,127.0,11.6,-99999.0,'1111122,1111122,1199999999' 
ADCP,ioos:station:wmo:42890:1,2016-01-01T17:32:00Z,27.6250,-90.4410,15.2,100.0,16.4,-9999.0,'11111222,11111222,99999999' 
ADCP,ioos:station:wmo:42890:1,2016-01-01T17:52:00Z,27.6250,-90.4410,15.2,121.0,14.7,-9999.0,'11111222,11111222,99999999' 
ADCP,ioos:station:wmo:42890:1,2016-01-01T18:12:00Z,27.6250,-90.4410,15.2,117.0,20.3,-99999.0,'1111122,1111122,1199999999' 
ADCP,ioos:station:wmo:42890:1,2016-01-01T18:32:00Z,27.6250,-90.4410,15.2,119.0,19.3,-9999.0,'11111222,11111222,99999999' 
ADCP,ioos:station:wmo:42890:1,2016-01-01T18:52:00Z,27.6250,-90.4410,15.2,130.0,15.6,-9999.0,'11111222,11111222,99999999' 
ADCP,ioos:station:wmo:42890:1,2016-01-01T19:12:00Z,27.6250,-90.4410,15.2,119.0,20.3,-99999.0,'1111122,1111122,1199999999' 
ADCP,ioos:station:wmo:42890:1,2016-01-01T19:32:00Z,27.6250,-90.4410,15.2,117.0,22.8,-9999.0,'11111222,11111222,99999999' 
ADCP,ioos:station:wmo:42890:1,2016-01-01T19:52:00Z,27.6250,-90.4410,15.2,128.0,21.4,-9999.0,'11111222,11111222,99999999' 
ADCP,ioos:station:wmo:42890:1,2016-01-01T20:12:00Z,27.6250,-90.4410,15.2,126.0,20.7,-9999.0,'11111222,11111222,99999999' 
ADCP,ioos:station:wmo:42890:1,2016-01-01T20:32:00Z,27.6250,-90.4410,15.2,127.0,15.7,-9999.0,'11111222,11111222,99999999' 
ADCP,ioos:station:wmo:42890:1,2016-01-01T20:52:00Z,27.6250,-90.4410,15.2,137.0,19.9,-9999.0,'11111222,11111222,99999999' 
ADCP,ioos:station:wmo:42890:1,2016-01-01T21:12:00Z,27.6250,-90.4410,15.2,123.0,22.2,-9999.0,'11111222,11111222,99999999' 
ADCP,ioos:station:wmo:42890:1,2016-01-01T21:32:00Z,27.6250,-90.4410,15.2,128.0,19.6,-9999.0,'11111222,11111222,99999999' 
ADCP,ioos:station:wmo:42890:1,2016-01-01T21:52:00Z,27.6250,-90.4410,15.2,138.0,19.7,-9999.0,'11111222,11111222,99999999' 
ADCP,ioos:station:wmo:42890:1,2016-01-01T22:12:00Z,27.6250,-90.4410,15.2,132.0,22.9,-9999.0,'11111222,11111222,99999999' 
ADCP,ioos:station:wmo:42890:1,2016-01-01T22:32:00Z,27.6250,-90.4410,15.2,132.0,17.5,-9999.0,'11111222,11111222,99999999' 
ADCP,ioos:station:wmo:42890:1,2016-01-01T22:52:00Z,27.6250,-90.4410,15.2,136.0,19.3,-9999.0,'11111222,11111222,99999999' 
ADCP,ioos:station:wmo:42890:1,2016-01-01T23:12:00Z,27.6250,-90.4410,15.2,155.0,19.4,-9999.0,'11111222,11111222,99999999' 
ADCP,ioos:station:wmo:42890:1,2016-01-01T23:32:00Z,27.6250,-90.4410,15.2,155.0,18.8,-9999.0,'11111222,11111222,99999999' 
ADCP,ioos:station:wmo:42890:1,2016-01-01T23:52:00Z,27.6250,-90.4410,15.2,153.0,17.7,-9999.0,'11111222,11111222,99999999' 
ADCP,ioos:station:wmo:42890:1,2016-01-02T00:12:00Z,27.6250,-90.4410,15.2,150.0,20.1,-9999.0,'11111222,11111222,99999999' 
ADCP,ioos:station:wmo:42890:1,2016-01-02T00:32:00Z,27.6250,-90.4410,15.2,156.0,19.9,-9999.0,'11111222,11111222,99999999' 
ADCP,ioos:station:wmo:42890:1,2016-01-02T00:52:00Z,27.6250,-90.4410,15.2,151.0,18.0,-9999.0,'11111222,11111222,99999999' 
ADCP,ioos:station:wmo:42890:1,2016-01-02T01:12:00Z,27.6250,-90.4410,15.2,149.0,20.6,-9999.0,'11111222,11111222,99999999' 
ADCP,ioos:station:wmo:42890:1,2016-01-02T01:32:00Z,27.6250,-90.4410,15.2,141.0,15.4,-9999.0,'11111222,11111222,99999999' 
ADCP,ioos:station:wmo:42890:1,2016-01-02T01:52:00Z,27.6250,-90.4410,15.2,143.0,15.8,-9999.0,'11111222,11111222,99999999' 
ADCP,ioos:station:wmo:42890:1,2016-01-02T02:12:00Z,27.6250,-90.4410,15.2,155.0,14.2,-9999.0,'11111222,11111222,99999999' 
ADCP,ioos:station:wmo:42890:1,2016-01-02T02:32:00Z,27.6250,-90.4410,15.2,141.0,14.4,-9999.0,'11111222,11111222,99999999' 
ADCP,ioos:station:wmo:42890:1,2016-01-02T02:52:00Z,27.6250,-90.4410,15.2,142.0,12.5,-9999.0,'11111222,11111222,99999999' 
ADCP,ioos:station:wmo:42890:1,2016-01-02T03:12:00Z,27.6250,-90.4410,15.2,156.0,17.7,-9999.0,'11111222,11111222,99999999' 
ADCP,ioos:station:wmo:42890:1,2016-01-02T03:32:00Z,27.6250,-90.4410,15.2,160.0,20.0,-9999.0,'11111222,11111222,99999999' 
ADCP,ioos:station:wmo:42890:1,2016-01-02T03:52:00Z,27.6250,-90.4410,15.2,148.0,17.1,-9999.0,'11111222,11111222,99999999' 
ADCP,ioos:station:wmo:42890:1,2016-01-02T04:12:00Z,27.6250,-90.4410,15.2,146.0,14.5,-9999.0,'11111222,11111222,99999999' 
ADCP,ioos:station:wmo:42890:1,2016-01-02T04:32:00Z,27.6250,-90.4410,15.2,137.0,15.8,-9999.0,'11111222,11111222,99999999' 
ADCP,ioos:station:wmo:42890:1,2016-01-02T04:52:00Z,27.6250,-90.4410,15.2,131.0,16.7,-9999.0,'11111222,11111222,99999999' 
ADCP,ioos:station:wmo:42890:1,2016-01-02T05:12:00Z,27.6250,-90.4410,15.2,141.0,19.7,-9999.0,'11111222,11111222,99999999' 
ADCP,ioos:station:wmo:42890:1,2016-01-02T05:32:00Z,27.6250,-90.4410,15.2,130.0,14.9,-9999.0,'11111222,11111222,99999999' 
ADCP,ioos:station:wmo:42890:1,2016-01-02T05:52:00Z,27.6250,-90.4410,15.2,150.0,15.7,-9999.0,'11111222,11111222,99999999' 
ADCP,ioos:station:wmo:42890:1,2016-01-02T06:12:00Z,27.6250,-90.4410,15.2,149.0,16.3,-9999.0,'11111222,11111222,99999999' 
ADCP,ioos:station:wmo:42890:1,2016-01-02T06:32:00Z,27.6250,-90.4410,15.2,136.0,16.4,-9999.0,'11111222,11111222,99999999' 
ADCP,ioos:station:wmo:42890:1,2016-01-02T06:52:00Z,27.6250,-90.4410,15.2,135.0,17.5,-9999.0,'11111222,11111222,99999999' 
ADCP,ioos:station:wmo:42890:1,2016-01-02T07:12:00Z,27.6250,-90.4410,15.2,145.0,17.3,-9999.0,'11111222,11111222,99999999' 
ADCP,ioos:station:wmo:42890:1,2016-01-02T07:32:00Z,27.6250,-90.4410,15.2,132.0,19.3,-9999.0,'11111222,11111222,99999999' 
ADCP,ioos:station:wmo:42890:1,2016-01-02T07:52:00Z,27.6250,-90.4410,15.2,125.0,17.7,-9999.0,'11111222,11111222,99999999' 
ADCP,ioos:station:wmo:42890:1,2016-01-02T08:12:00Z,27.6250,-90.4410,15.2,118.0,18.8,-9999.0,'11111222,11111222,99999999' 
ADCP,ioos:station:wmo:42890:1,2016-01-02T08:32:00Z,27.6250,-90.4410,15.2,131.0,18.0,-9999.0,'11111222,11111222,99999999' 
ADCP,ioos:station:wmo:42890:1,2016-01-02T08:52:00Z,27.6250,-90.4410,15.2,131.0,20.8,-9999.0,'11111222,11111222,99999999' 
ADCP,ioos:station:wmo:42890:1,2016-01-02T09:12:00Z,27.6250,-90.4410,15.2,145.0,18.5,-9999.0,'11111222,11111222,99999999' 
ADCP,ioos:station:wmo:42890:1,2016-01-02T09:32:00Z,27.6250,-90.4410,15.2,125.0,18.4,-9999.0,'11111222,11111222,99999999' 
ADCP,ioos:station:wmo:42890:1,2016-01-02T09:52:00Z,27.6250,-90.4410,15.2,147.0,17.6,-9999.0,'11111222,11111222,99999999' 
ADCP,ioos:station:wmo:42890:1,2016-01-02T10:12:00Z,27.6250,-90.4410,15.2,137.0,21.9,-9999.0,'11111222,11111222,99999999' 
ADCP,ioos:station:wmo:42890:1,2016-01-02T10:32:00Z,27.6250,-90.4410,15.2,131.0,20.6,-9999.0,'11111222,11111222,99999999' 
ADCP,ioos:station:wmo:42890:1,2016-01-02T10:52:00Z,27.6250,-90.4410,15.2,135.0,18.7,-9999.0,'11111222,11111222,99999999' 
ADCP,ioos:station:wmo:42890:1,2016-01-02T11:12:00Z,27.6250,-90.4410,15.2,145.0,19.5,-9999.0,'11111222,11111222,99999999' 
ADCP,ioos:station:wmo:42890:1,2016-01-02T11:32:00Z,27.6250,-90.4410,15.2,134.0,15.1,-9999.0,'11111222,11111222,99999999' 
ADCP,ioos:station:wmo:42890:1,2016-01-02T11:52:00Z,27.6250,-90.4410,15.2,125.0,15.9,-9999.0,'11111222,11111222,99999999' 
ADCP,ioos:station:wmo:42890:1,2016-01-02T12:12:00Z,27.6250,-90.4410,15.2,150.0,19.4,-9999.0,'11111222,11111222,99999999' 
ADCP,ioos:station:wmo:42890:1,2016-01-02T12:32:00Z,27.6250,-90.4410,15.2,121.0,21.9,-9999.0,'11111222,11111222,99999999' 
ADCP,ioos:station:wmo:42890:1,2016-01-02T12:52:00Z,27.6250,-90.4410,15.2,124.0,14.8,-9999.0,'11111222,11111222,99999999' 
ADCP,ioos:station:wmo:42890:1,2016-01-02T13:12:00Z,27.6250,-90.4410,15.2,129.0,18.1,-9999.0,'11111222,11111222,99999999' 
ADCP,ioos:station:wmo:42890:1,2016-01-02T13:32:00Z,27.6250,-90.4410,15.2,132.0,16.4,-9999.0,'11111222,11111222,99999999' 
ADCP,ioos:station:wmo:42890:1,2016-01-02T13:52:00Z,27.6250,-90.4410,15.2,154.0,19.8,-9999.0,'11111222,11111222,99999999' 
ADCP,ioos:station:wmo:42890:1,2016-01-02T14:12:00Z,27.6250,-90.4410,15.2,122.0,19.2,-9999.0,'11111222,11111222,99999999' 
ADCP,ioos:station:wmo:42890:1,2016-01-02T14:32:00Z,27.6250,-90.4410,15.2,141.0,17.0,-9999.0,'11111222,11111222,99999999' 
ADCP,ioos:station:wmo:42890:1,2016-01-02T14:52:00Z,27.6250,-90.4410,15.2,142.0,19.9,-9999.0,'11111222,11111222,99999999' 
ADCP,ioos:station:wmo:42890:1,2016-01-02T15:12:00Z,27.6250,-90.4410,15.2,137.0,20.1,-9999.0,'11111222,11111222,99999999' 
ADCP,ioos:station:wmo:42890:1,2016-01-02T15:32:00Z,27.6250,-90.4410,15.2,133.0,18.0,-9999.0,'11111222,11111222,99999999' 
ADCP,ioos:station:wmo:42890:1,2016-01-02T15:52:00Z,27.6250,-90.4410,15.2,148.0,17.3,-9999.0,'11111222,11111222,99999999' 
ADCP,ioos:station:wmo:42890:1,2016-01-02T16:12:00Z,27.6250,-90.4410,15.2,149.0,19.9,-9999.0,'11111222,11111222,99999999' 
ADCP,ioos:station:wmo:42890:1,2016-01-02T16:32:00Z,27.6250,-90.4410,15.2,151.0,17.9,-9999.0,'11111222,11111222,99999999' 
ADCP,ioos:station:wmo:42890:1,2016-01-02T16:52:00Z,27.6250,-90.4410,15.2,146.0,20.0,-9999.0,'11111222,11111222,99999999' 
ADCP,ioos:station:wmo:42890:1,2016-01-02T17:12:00Z,27.6250,-90.4410,15.2,151.0,15.0,-9999.0,'11111222,11111222,99999999' 
ADCP,ioos:station:wmo:42890:1,2016-01-02T17:32:00Z,27.6250,-90.4410,15.2,149.0,15.9,-9999.0,'11111222,11111222,99999999' 
ADCP,ioos:station:wmo:42890:1,2016-01-02T17:52:00Z,27.6250,-90.4410,15.2,138.0,16.5,-9999.0,'11111222,11111222,99999999' 
ADCP,ioos:station:wmo:42890:1,2016-01-02T18:12:00Z,27.6250,-90.4410,15.2,128.0,15.9,-9999.0,'11111222,11111222,99999999' 
ADCP,ioos:station:wmo:42890:1,2016-01-02T18:32:00Z,27.6250,-90.4410,15.2,135.0,19.3,-9999.0,'11111222,11111222,99999999' 
ADCP,ioos:station:wmo:42890:1,2016-01-02T18:52:00Z,27.6250,-90.4410,15.2,137.0,16.1,-9999.0,'11111222,11111222,99999999' 
ADCP,ioos:station:wmo:42890:1,2016-01-02T19:12:00Z,27.6250,-90.4410,15.2,137.0,16.1,-9999.0,'11111222,11111222,99999999' 
ADCP,ioos:station:wmo:42890:1,2016-01-02T19:32:00Z,27.6250,-90.4410,15.2,153.0,15.9,-9999.0,'11111222,11111222,99999999' 
ADCP,ioos:station:wmo:42890:1,2016-01-02T19:52:00Z,27.6250,-90.4410,15.2,154.0,14.2,-9999.0,'11111222,11111222,99999999' 
ADCP,ioos:station:wmo:42890:1,2016-01-02T20:12:00Z,27.6250,-90.4410,15.2,146.0,14.7,-9999.0,'11111222,11111222,99999999' 
ADCP,ioos:station:wmo:42890:1,2016-01-02T20:32:00Z,27.6250,-90.4410,15.2,133.0,18.4,-9999.0,'11111222,11111222,99999999' 
ADCP,ioos:station:wmo:42890:1,2016-01-02T20:52:00Z,27.6250,-90.4410,15.2,143.0,20.9,-9999.0,'11111222,11111222,99999999' 
ADCP,ioos:station:wmo:42890:1,2016-01-02T21:12:00Z,27.6250,-90.4410,15.2,136.0,21.5,-9999.0,'11111222,11111222,99999999' 
ADCP,ioos:station:wmo:42890:1,2016-01-02T21:32:00Z,27.6250,-90.4410,15.2,134.0,22.4,-9999.0,'11111222,11111222,99999999' 
ADCP,ioos:station:wmo:42890:1,2016-01-02T21:52:00Z,27.6250,-90.4410,15.2,148.0,16.1,-9999.0,'11111222,11111222,99999999' 
ADCP,ioos:station:wmo:42890:1,2016-01-02T22:12:00Z,27.6250,-90.4410,15.2,140.0,14.0,-99999.0,'1111122,1111122,1199999999' 
ADCP,ioos:station:wmo:42890:1,2016-01-02T22:32:00Z,27.6250,-90.4410,15.2,160.0,13.1,-9999.0,'11111222,11111222,99999999' 
ADCP,ioos:station:wmo:42890:1,2016-01-02T22:52:00Z,27.6250,-90.4410,15.2,121.0,13.8,-9999.0,'11111222,11111222,99999999' 
ADCP,ioos:station:wmo:42890:1,2016-01-02T23:12:00Z,27.6250,-90.4410,15.2,117.0,10.3,-99999.0,'1111122,1111122,1199999999' 
ADCP,ioos:station:wmo:42890:1,2016-01-02T23:32:00Z,27.6250,-90.4410,15.2,117.0,10.6,-9999.0,'11111222,11111222,99999999' 
ADCP,ioos:station:wmo:42890:1,2016-01-02T23:52:00Z,27.6250,-90.4410,15.2,114.0,8.0,-9999.0,'11133222,11111222,99999999' 
ADCP,ioos:station:wmo:42890:1,2016-01-03T00:12:00Z,27.6250,-90.4410,15.2,111.0,6.9,-9999.0,'11133222,11111222,99999999' 
ADCP,ioos:station:wmo:42890:1,2016-01-03T00:32:00Z,27.6250,-90.4410,15.2,139.0,8.7,-9999.0,'11133222,11111222,99999999' 
ADCP,ioos:station:wmo:42890:1,2016-01-03T00:52:00Z,27.6250,-90.4410,15.2,143.0,10.2,-9999.0,'11111222,11111222,99999999' 
ADCP,ioos:station:wmo:42890:1,2016-01-03T01:12:00Z,27.6250,-90.4410,15.2,134.0,14.1,-99999.0,'1111122,1111122,1199999999' 
ADCP,ioos:station:wmo:42890:1,2016-01-03T01:32:00Z,27.6250,-90.4410,15.2,126.0,12.0,-9999.0,'11111222,11111222,99999999' 
ADCP,ioos:station:wmo:42890:1,2016-01-03T01:52:00Z,27.6250,-90.4410,15.2,185.0,13.9,-9999.0,'11111222,11111222,99999999' 
ADCP,ioos:station:wmo:42890:1,2016-01-03T02:12:00Z,27.6250,-90.4410,15.2,163.0,7.0,-99999.0,'1111122,1111122,1199999999' 
ADCP,ioos:station:wmo:42890:1,2016-01-03T02:32:00Z,27.6250,-90.4410,15.2,141.0,4.8,-9999.0,'11133222,11111222,99999999' 
ADCP,ioos:station:wmo:42890:1,2016-01-03T02:52:00Z,27.6250,-90.4410,15.2,139.0,9.4,-9999.0,'11133222,11111222,99999999' 
ADCP,ioos:station:wmo:42890:1,2016-01-03T03:12:00Z,27.6250,-90.4410,15.2,129.0,12.6,-99999.0,'1111122,1111122,1199999999' 
ADCP,ioos:station:wmo:42890:1,2016-01-03T03:32:00Z,27.6250,-90.4410,15.2,75.0,8.8,-9999.0,'11133222,11111222,99999999' 
ADCP,ioos:station:wmo:42890:1,2016-01-03T03:52:00Z,27.6250,-90.4410,15.2,85.0,6.8,-9999.0,'11133222,11111222,99999999' 
ADCP,ioos:station:wmo:42890:1,2016-01-03T04:12:00Z,27.6250,-90.4410,15.2,86.0,10.5,-99999.0,'1111122,1111122,1199999999' 
ADCP,ioos:station:wmo:42890:1,2016-01-03T04:32:00Z,27.6250,-90.4410,15.2,80.0,7.2,-9999.0,'11133222,11111222,99999999' 
ADCP,ioos:station:wmo:42890:1,2016-01-03T04:52:00Z,27.6250,-90.4410,15.2,38.0,9.0,-9999.0,'11133222,11111222,99999999' 
ADCP,ioos:station:wmo:42890:1,2016-01-03T05:12:00Z,27.6250,-90.4410,15.2,19.0,8.5,-99999.0,'1111122,1111122,1199999999' 
ADCP,ioos:station:wmo:42890:1,2016-01-03T05:32:00Z,27.6250,-90.4410,15.2,29.0,7.2,-9999.0,'11133222,11111222,99999999' 
ADCP,ioos:station:wmo:42890:1,2016-01-03T05:52:00Z,27.6250,-90.4410,15.2,39.0,7.3,-9999.0,'11133222,11111222,99999999' 
ADCP,ioos:station:wmo:42890:1,2016-01-03T06:12:00Z,27.6250,-90.4410,15.2,35.0,5.7,-99999.0,'1111122,1111122,1199999999' 
ADCP,ioos:station:wmo:42890:1,2016-01-03T06:32:00Z,27.6250,-90.4410,15.2,40.0,17.5,-9999.0,'11111222,11111222,99999999' 
ADCP,ioos:station:wmo:42890:1,2016-01-03T06:52:00Z,27.6250,-90.4410,15.2,42.0,15.4,-9999.0,'11111222,11111222,99999999' 
ADCP,ioos:station:wmo:42890:1,2016-01-03T07:12:00Z,27.6250,-90.4410,15.2,49.0,15.0,-99999.0,'1111122,1111122,1199999999' 
ADCP,ioos:station:wmo:42890:1,2016-01-03T07:32:00Z,27.6250,-90.4410,15.2,34.0,8.5,-9999.0,'11133222,11111222,99999999' 
ADCP,ioos:station:wmo:42890:1,2016-01-03T07:52:00Z,27.6250,-90.4410,15.2,53.0,6.7,-9999.0,'11133222,11111222,99999999' 
ADCP,ioos:station:wmo:42890:1,2016-01-03T08:12:00Z,27.6250,-90.4410,15.2,64.0,6.2,-99999.0,'1111122,1111122,1199999999' 
ADCP,ioos:station:wmo:42890:1,2016-01-03T08:32:00Z,27.6250,-90.4410,15.2,134.0,5.3,-9999.0,'11133222,11111222,99999999' 
ADCP,ioos:station:wmo:42890:1,2016-01-03T08:52:00Z,27.6250,-90.4410,15.2,259.0,8.1,-9999.0,'11133222,11111222,99999999' 
ADCP,ioos:station:wmo:42890:1,2016-01-03T09:12:00Z,27.6250,-90.4410,15.2,35.0,5.0,-99999.0,'1111122,1111122,1199999999' 
ADCP,ioos:station:wmo:42890:1,2016-01-03T09:32:00Z,27.6250,-90.4410,15.2,211.0,5.8,-9999.0,'11133222,11111222,99999999' 
ADCP,ioos:station:wmo:42890:1,2016-01-03T09:52:00Z,27.6250,-90.4410,15.2,100.0,5.4,-9999.0,'11133222,11111222,99999999' 
ADCP,ioos:station:wmo:42890:1,2016-01-03T10:12:00Z,27.6250,-90.4410,15.2,64.0,6.9,-9999.0,'11133222,11111222,99999999' 
ADCP,ioos:station:wmo:42890:1,2016-01-03T10:32:00Z,27.6250,-90.4410,15.2,95.0,9.6,-9999.0,'11133222,11111222,99999999' 
ADCP,ioos:station:wmo:42890:1,2016-01-03T10:52:00Z,27.6250,-90.4410,15.2,115.0,8.0,-9999.0,'11133222,11111222,99999999' 
ADCP,ioos:station:wmo:42890:1,2016-01-03T11:12:00Z,27.6250,-90.4410,15.2,115.0,9.8,-99999.0,'1111122,1111122,1199999999' 
ADCP,ioos:station:wmo:42890:1,2016-01-03T11:32:00Z,27.6250,-90.4410,15.2,121.0,9.8,-9999.0,'11133222,11111222,99999999' 
ADCP,ioos:station:wmo:42890:1,2016-01-03T11:52:00Z,27.6250,-90.4410,15.2,91.0,11.3,-9999.0,'11111222,11111222,99999999' 
ADCP,ioos:station:wmo:42890:1,2016-01-03T12:12:00Z,27.6250,-90.4410,15.2,89.0,12.7,-99999.0,'1111122,1111122,1199999999' 
ADCP,ioos:station:wmo:42890:1,2016-01-03T12:32:00Z,27.6250,-90.4410,15.2,92.0,14.2,-9999.0,'11111222,11111222,99999999' 
ADCP,ioos:station:wmo:42890:1,2016-01-03T12:52:00Z,27.6250,-90.4410,15.2,84.0,18.4,-9999.0,'11111222,11111222,99999999' 
ADCP,ioos:station:wmo:42890:1,2016-01-03T13:12:00Z,27.6250,-90.4410,15.2,91.0,17.1,-99999.0,'1111122,1111122,1199999999' 
ADCP,ioos:station:wmo:42890:1,2016-01-03T13:32:00Z,27.6250,-90.4410,15.2,98.0,18.6,-9999.0,'11111222,11111222,99999999' 
ADCP,ioos:station:wmo:42890:1,2016-01-03T13:52:00Z,27.6250,-90.4410,15.2,88.0,12.2,-9999.0,'11111222,11111222,99999999' 
ADCP,ioos:station:wmo:42890:1,2016-01-03T14:12:00Z,27.6250,-90.4410,15.2,91.0,19.2,-99999.0,'1111122,1111122,1199999999' 
ADCP,ioos:station:wmo:42890:1,2016-01-03T14:32:00Z,27.6250,-90.4410,15.2,96.0,16.4,-9999.0,'11111222,11111222,99999999' 
ADCP,ioos:station:wmo:42890:1,2016-01-03T14:52:00Z,27.6250,-90.4410,15.2,104.0,24.0,-9999.0,'11111222,11111222,99999999' 
ADCP,ioos:station:wmo:42890:1,2016-01-03T15:12:00Z,27.6250,-90.4410,15.2,109.0,22.4,-99999.0,'1111122,1111122,1199999999' 
ADCP,ioos:station:wmo:42890:1,2016-01-03T15:32:00Z,27.6250,-90.4410,15.2,119.0,22.4,-9999.0,'11111222,11111222,99999999' 
ADCP,ioos:station:wmo:42890:1,2016-01-03T15:52:00Z,27.6250,-90.4410,15.2,114.0,20.6,-9999.0,'11111222,11111222,99999999' 
ADCP,ioos:station:wmo:42890:1,2016-01-03T16:12:00Z,27.6250,-90.4410,15.2,122.0,18.8,-99999.0,'1111122,1111122,1199999999' 
ADCP,ioos:station:wmo:42890:1,2016-01-03T16:32:00Z,27.6250,-90.4410,15.2,119.0,18.1,-9999.0,'11111222,11111222,99999999' 
ADCP,ioos:station:wmo:42890:1,2016-01-03T16:52:00Z,27.6250,-90.4410,15.2,117.0,18.5,-9999.0,'11111222,11111222,99999999' 
ADCP,ioos:station:wmo:42890:1,2016-01-03T17:12:00Z,27.6250,-90.4410,15.2,122.0,21.6,-99999.0,'1111122,1111122,1199999999' 